Marshfield, WI

12:43 AM CST on December 11, 2019 (GMT -0600)
Marshfield Municipal

Weather History for KMFI - November, 2019

Change the Weather History Date:

Friday, November 15, 2019

  Actual Average Record
Temperature  
Mean Temperature 29 °F -  
Max Temperature 39 °F 41 °F 67 °F (1953)
Min Temperature 19 °F 24 °F -2 °F (1933)
Degree Days  
Heating Degree Days 36    
Moisture  
Dew Point 16 °F    
Average Humidity 61    
Maximum Humidity 89    
Minimum Humidity 30    
Precipitation  
Precipitation 0.00 in - - ()
Sea Level Pressure  
Sea Level Pressure 30.34 in    
Wind  
Wind Speed 5 mph ()    
Max Wind Speed 10 mph    
Max Gust Speed -    
Visibility 9.5 miles    
Events      
Averages and records for this station are not official NWS values.
T = Trace of Precipitation, MM = Missing Value Source: Averaged Metar Reports

Daily Weather History Graph

Daily Weather History Graph

Search for Another Location

Airport or City:

Astronomy

Nov. 15, 2019 Rise Set
Actual Time 6:57 AM CST 4:32 PM CST
Civil Twilight 6:25 AM CST 5:04 PM CST
Nautical Twilight 5:50 AM CST 5:39 PM CST
Astronomical Twilight 5:15 AM CST 6:14 PM CST
Moon 7:04 PM CST (11/15) 9:58 AM CST (11/15)
Length of Visible Light 10h 38m
Length of Day
9h 35m
Waning Gibbous, 90% of the Moon is Illuminated
Nov 15
Waning Gibbous
Nov 19
Last Quarter
Nov 26
New
Dec 4
First Quarter
Dec 11
Full

Hourly Weather History & Observations

Time (CST) Temp. Windchill Dew Point Humidity Pressure Visibility Wind Dir Wind Speed Gust Speed Precip Events Conditions
1:54 AM 26.1 °F 18.4 °F 19.0 °F 75% 30.22 in 10.0 mi West 6.9 mph - N/A   Overcast
2:54 AM 26.1 °F 18.4 °F 19.9 °F 78% 30.24 in 10.0 mi West 6.9 mph - N/A   Overcast
3:54 AM 27.0 °F 20.5 °F 19.9 °F 75% 30.24 in 10.0 mi West 5.8 mph - N/A   Overcast
4:43 AM 24.1 °F 17.0 °F 19.0 °F 81% 30.19 in 10.0 mi WSW 5.8 mph - N/A   Scattered Clouds
4:54 AM 23.0 °F 15.8 °F 19.0 °F 85% 30.26 in 9.0 mi WSW 5.8 mph - N/A   Clear
5:54 AM 21.0 °F 16.2 °F 18.0 °F 88% 30.29 in 8.0 mi West 3.5 mph - N/A   Clear
6:54 AM 19.9 °F 14.9 °F 17.1 °F 89% 30.30 in 6.0 mi WNW 3.5 mph - N/A   Clear
7:54 AM 25.0 °F 18.1 °F 21.0 °F 85% 30.32 in 6.0 mi NW 5.8 mph - N/A   Clear
8:54 AM 30.0 °F 21.1 °F 21.0 °F 69% 30.34 in 10.0 mi NNW 10.4 mph - N/A   Clear
9:54 AM 33.1 °F 24.9 °F 16.0 °F 50% 30.35 in 10.0 mi NNW 10.4 mph - N/A   Clear
10:54 AM 34.0 °F 28.8 °F 16.0 °F 48% 30.37 in 10.0 mi NNW 5.8 mph - N/A   Clear
11:54 AM 36.0 °F 30.3 °F 15.1 °F 43% 30.36 in 10.0 mi North 6.9 mph - N/A   Clear
12:54 PM 37.0 °F 30.4 °F 10.0 °F 33% 30.36 in 10.0 mi NNW 9.2 mph - N/A   Clear
1:54 PM 39.0 °F 34.0 °F 10.0 °F 30% 30.36 in 10.0 mi NNW 6.9 mph - N/A   Clear
2:54 PM 37.9 °F 32.7 °F 10.0 °F 32% 30.37 in 10.0 mi NW 6.9 mph - N/A   Clear
3:54 PM 36.0 °F 33.3 °F 10.9 °F 36% 30.37 in 10.0 mi NW 3.5 mph - N/A   Clear
4:54 PM 30.9 °F - 15.1 °F 52% 30.39 in 10.0 mi Calm Calm - N/A   Clear
5:54 PM 30.0 °F - 10.9 °F 45% 30.40 in 10.0 mi Calm Calm - N/A   Clear
6:54 PM 27.0 °F - 14.0 °F 58% 30.41 in 10.0 mi Calm Calm - N/A   Clear
7:54 PM 26.1 °F 20.5 °F 17.1 °F 69% 30.41 in 10.0 mi East 4.6 mph - N/A   Clear
8:54 PM 27.0 °F 20.5 °F 12.9 °F 56% 30.41 in 10.0 mi East 5.8 mph - N/A   Clear
9:54 PM 27.0 °F 19.5 °F 12.9 °F 56% 30.42 in 10.0 mi ESE 6.9 mph - N/A   Clear
10:54 PM 27.0 °F 18.7 °F 15.1 °F 61% 30.42 in 10.0 mi SE 8.1 mph - N/A   Clear
11:54 PM 26.1 °F 18.4 °F 16.0 °F 66% 30.43 in 10.0 mi ESE 6.9 mph - N/A   Clear